Location: Handeloh
(53.2500°N, 9.8330°E)
Time: 20:40:34
(UTC+01:00)

S-56A Canister/Altair - Pass Details

Date: 18 November 2019
Orbit: 633 x 2499 km, 38.9° (Epoch: 04 December)

Event Time Altitude Azimuth Distance (km) Brightness Sun altitude
Rises 21:05:20 0° 255° (WSW) 4,032 11.7 -41.5°
Reaches altitude 10° 21:09:30 10° 237° (WSW) 2,721 10.6 -42.1°
Enters shadow 21:09:34 10° 237° (WSW) 2,700 10.5 -42.1°
Maximum altitude 21:13:14 16° 200° (SSW) 2,017 - -42.6°
Drops below altitude 10° 21:16:24 10° 161° (SSE) 2,238 - -43.0°
Sets 21:19:21 0° 139° (SE) 3,014 - -43.4°
